Theta_e
304 296 292 297 299 296 295 294 292 295 299 297 296 296 299 302 303 303 304 305 306 307 310 312 314 316 317 317 317 317 319 323 326 327 328 330 329 330 330 331 333 334 334 334
296 289 296 299 300 297 295 293 292 296 297 297 296 295 299 301 301 302 302 303 304 306 308 310 312 314 314 315 316 316 316 319 323 325 327 329 330 331 332 333 331 331 333 333
290 292 297 297 296 295 295 293 292 291 295 297 294 291 294 297 299 300 302 303 304 305 306 307 308 309 312 312 313 313 314 315 319 324 326 327 329 330 329 330 331 332 332 332
293 296 294 294 293 295 289 295 294 293 290 286 293 283 291 294 295 297 299 301 302 302 303 304 304 305 307 309 310 310 311 313 316 322 323 324 323 323 326 327 329 330 331 331
290 293 293 291 292 296 290 296 294 293 290 289 288 286 289 292 292 295 298 298 300 301 301 302 303 304 303 305 309 312 312 311 314 320 323 323 323 324 326 325 325 327 328 330
292 297 296 294 296 297 298 295 294 293 291 282 286 285 286 290 292 293 296 300 299 300 301 301 301 303 304 307 308 310 310 311 318 320 321 321 321 322 322 323 323 325 326 326
290 291 295 296 293 296 296 290 283 281 281 280 286 285 289 294 295 295 297 299 300 301 301 302 303 304 305 306 307 306 306 304 306 308 310 314 316 319 321 320 320 320 321 323
284 281 291 296 293 291 292 290 283 276 278 281 285 282 288 295 297 298 298 299 300 301 301 302 302 302 302 302 303 304 303 301 302 304 304 305 306 307 308 306 307 308 308 310
284 283 292 294 295 295 291 287 290 283 281 280 284 287 292 296 295 295 296 296 298 301 301 302 300 300 299 299 298 300 300 299 299 300 302 303 303 303 303 304 306 306 307 306
288 282 288 292 295 294 293 294 284 287 277 276 282 283 285 290 292 294 296 297 297 298 299 302 300 298 298 297 297 297 297 297 297 298 299 299 299 300 301 302 302 302 303 304
290 286 285 290 289 288 289 288 289 288 286 279 277 283 292 292 293 294 296 297 298 298 298 300 298 297 296 296 296 296 296 296 296 297 297 298 298 297 298 298 298 298 299 300
291 287 283 285 290 292 293 289 289 283 280 284 283 283 293 295 295 296 297 297 299 299 300 301 298 296 296 295 294 294 294 294 294 295 295 295 295 296 296 296 296 297 297 298
291 286 281 282 286 289 288 290 291 290 287 283 280 283 292 294 296 297 295 298 299 298 301 299 297 296 296 295 293 293 293 292 293 293 293 293 293 294 294 294 295 296 296 297
295 287 285 281 283 287 285 287 290 289 284 284 285 286 291 293 294 296 297 299 300 298 299 300 298 297 296 295 294 293 292 292 292 291 291 291 291 292 293 293 294 294 295 295
293 284 286 287 286 287 286 287 288 286 288 284 287 287 291 293 295 296 298 299 299 298 298 300 299 298 297 295 293 292 291 290 290 290 291 290 291 292 292 293 293 294 294 294
292 283 285 281 288 287 283 287 288 288 288 288 289 288 295 296 297 296 297 297 298 299 300 300 299 297 296 294 293 291 291 290 290 290 289 289 289 290 291 291 292 292 293 293
287 286 283 280 285 285 279 284 287 287 289 289 285 291 295 294 295 295 297 298 298 300 301 301 300 299 298 294 292 291 290 289 289 289 287 287 286 287 288 288 290 290 291 292
285 285 285 280 280 273 284 290 291 289 289 291 291 292 293 294 296 298 299 298 299 299 300 302 302 301 297 295 292 290 289 289 288 286 285 284 284 284 285 286 287 287 289 290
291 287 282 279 278 282 284 287 286 285 285 291 290 292 294 295 295 295 298 299 299 301 301 302 303 301 295 291 289 289 288 287 286 284 283 282 282 282 282 283 283 284 284 285
288 289 284 279 276 274 284 289 291 290 281 292 293 292 293 293 288 292 298 299 299 300 300 295 293 291 290 288 288 287 285 284 283 282 281 280 280 280 281 281 282 283 284 284
282 283 280 281 278 282 288 290 291 279 283 292 293 293 293 291 294 297 296 294 292 292 289 288 288 287 287 285 286 285 283 282 280 279 278 278 279 279 280 280 281 281 282 284
280 280 280 281 279 276 292 288 284 290 293 293 293 293 293 295 295 295 295 292 289 287 285 285 284 281 282 283 284 282 280 278 277 276 276 276 276 278 278 278 279 280 282 283
279 285 282 284 283 291 291 291 294 294 292 293 292 294 293 293 293 292 291 288 286 285 283 282 280 277 277 278 280 278 275 274 273 273 273 274 275 276 276 276 277 279 281 281
283 286 284 283 287 288 290 291 292 293 293 294 293 292 293 292 293 288 285 283 282 281 280 278 277 275 273 274 273 273 271 270 271 272 272 273 273 273 274 275 276 277 278 278
285 286 284 283 286 287 289 290 291 291 291 290 290 290 291 291 289 286 282 281 280 279 278 277 275 273 271 271 269 269 268 268 270 270 271 271 272 272 272 274 274 274 276 277
285 284 282 281 287 287 288 291 290 289 289 290 289 289 287 288 288 283 281 278 277 276 275 274 273 270 269 268 266 265 264 265 267 269 269 269 270 270 271 271 272 274 274 276
Wind_Speed
4 6 11 16 15 1 5 5 7 2 2 3 9 14 16 18 13 16 17 18 20 21 21 16 13 12 12 12 12 13 12 12 9 9 10 10 10 10 10 8 13 14 13 14
5 9 7 6 6 10 4 5 5 5 3 3 11 17 18 21 22 20 22 23 21 18 19 16 14 13 11 12 11 13 13 12 10 9 8 8 7 9 10 10 12 14 14 13
7 3 11 8 10 12 12 11 7 7 4 9 9 17 16 10 11 12 18 19 16 16 17 14 12 13 11 12 12 12 13 13 12 12 8 7 5 5 6 8 8 10 12 12
5 5 12 11 11 10 11 6 8 8 5 6 5 8 7 10 14 14 15 12 9 10 11 11 11 10 9 9 7 9 9 9 8 11 10 12 8 8 6 6 5 6 9 11
4 10 11 11 9 12 4 6 6 6 6 7 5 7 3 4 10 12 4 2 4 5 4 6 6 4 0 0 1 2 3 3 6 9 11 8 10 7 6 4 6 6 7 9
3 1 5 5 4 13 9 8 5 3 3 7 7 8 4 6 5 1 3 4 3 8 3 2 3 4 6 5 6 6 7 7 4 4 7 8 8 8 6 6 6 5 5 6
4 3 2 3 9 4 10 9 2 3 5 6 3 8 7 11 9 7 7 6 6 6 3 2 4 5 6 6 6 7 7 8 7 7 6 4 1 2 4 4 4 5 4 4
10 7 12 11 9 9 15 10 4 6 5 2 3 9 4 8 6 6 6 8 7 7 4 3 3 5 5 5 6 6 6 7 7 6 6 5 5 3 2 3 3 3 4 5
8 5 4 4 4 8 13 10 2 3 2 3 5 5 12 10 8 7 6 5 4 7 6 5 3 3 4 5 5 5 5 6 7 6 5 6 5 5 4 5 5 4 5 5
7 3 1 5 4 1 6 11 5 4 5 7 5 5 8 5 7 0 3 4 2 4 7 7 5 4 3 4 4 5 5 5 5 5 5 4 5 5 5 4 5 5 5 6
6 2 3 5 11 15 8 7 5 4 6 3 4 2 3 5 2 2 1 4 3 6 9 8 5 4 2 3 3 4 4 5 5 5 5 5 5 5 5 4 5 6 6 7
8 3 5 6 2 4 15 10 14 6 5 7 7 9 5 6 7 3 8 3 6 6 9 9 7 6 5 4 3 2 3 4 4 4 5 5 5 5 5 5 6 6 6 6
13 6 5 4 2 1 10 13 16 13 1 11 8 6 3 4 8 5 8 5 5 4 7 9 9 10 8 5 4 3 2 3 3 4 4 4 5 5 5 6 6 7 7 7
15 6 9 11 3 6 9 13 19 17 9 18 18 21 12 11 13 8 7 9 7 7 12 14 12 10 9 8 7 6 4 2 3 4 4 4 5 5 5 5 6 6 7 7
12 7 9 12 2 5 4 10 15 20 26 19 21 25 21 19 19 15 16 16 14 11 12 15 14 12 11 10 8 5 4 3 2 4 3 4 4 4 5 5 5 5 6 7
9 4 6 3 15 12 4 6 14 20 22 21 25 28 19 22 16 17 18 12 14 15 15 15 14 14 14 13 10 7 6 5 4 3 3 3 4 4 5 5 6 6 6 7
12 7 6 12 12 6 6 22 21 18 16 19 22 25 18 21 18 16 14 15 18 17 16 16 17 17 12 14 12 11 8 6 5 4 3 3 4 4 4 5 6 6 6 7
9 10 8 6 6 14 13 11 19 22 24 23 22 22 25 23 21 15 13 17 19 19 19 17 14 13 13 12 11 9 8 7 6 4 3 2 2 3 4 5 5 6 6 7
12 11 7 8 11 11 11 11 10 15 25 20 21 26 25 24 19 19 16 21 22 22 20 18 15 9 10 13 12 11 10 8 6 5 4 2 1 3 4 4 5 5 6 7
7 8 10 4 10 14 16 19 8 7 11 17 17 21 23 21 13 16 17 13 19 21 12 4 6 8 12 12 12 12 11 9 7 5 3 0 2 3 4 4 6 5 6 6
9 5 18 16 12 7 15 6 10 9 14 20 18 21 21 18 17 17 5 4 2 2 3 5 7 8 10 10 11 11 10 8 6 4 2 1 3 4 4 5 5 5 6 6
11 9 6 5 8 9 15 6 15 17 10 13 12 12 15 18 18 14 10 6 5 6 8 8 10 9 7 8 9 9 8 6 4 2 2 2 3 3 4 5 6 6 6 7
7 11 7 9 7 7 8 15 8 6 7 7 5 8 11 11 12 7 7 7 6 8 9 8 11 12 8 6 5 8 5 4 3 2 2 3 3 4 5 6 6 5 5 5
6 3 6 3 14 14 7 6 5 4 7 10 8 9 11 16 16 8 6 8 8 7 8 8 12 11 8 7 8 8 6 4 3 3 3 3 3 6 6 5 4 5 6 6
5 9 6 6 15 5 12 9 8 9 8 6 8 12 14 11 12 6 6 7 9 8 6 8 9 9 9 7 7 6 5 4 4 3 3 4 4 5 5 3 4 6 6 7
8 13 10 12 8 6 15 4 1 5 7 10 8 11 9 9 11 5 7 9 10 10 8 7 9 11 8 8 8 6 5 5 4 4 4 4 4 4 4 6 6 7 9 12
Wind_Direction
164 182 200 192 200 149 165 188 209 227 25 315 263 271 271 275 276 272 268 261 259 256 263 265 261 254 246 243 242 239 236 233 219 214 221 225 222 229 236 231 240 240 233 230
155 225 188 201 180 196 159 157 202 267 284 268 283 276 269 270 266 262 264 262 259 264 263 261 260 254 246 249 242 245 239 239 220 216 213 222 217 229 229 225 228 234 240 235
191 120 181 164 176 196 217 230 226 263 280 264 289 266 255 252 254 252 254 261 266 264 272 277 268 260 252 240 238 240 243 244 233 224 215 218 227 235 233 232 238 232 233 237
222 144 162 182 188 196 218 213 223 245 280 267 355 295 245 275 280 256 258 261 276 274 265 267 264 264 247 247 253 252 250 248 238 225 216 219 222 231 233 242 238 238 228 235
155 176 162 181 194 192 206 187 200 222 243 294 197 248 278 250 260 266 291 71 63 4 284 278 288 280 35 297 188 227 231 221 222 216 222 223 236 254 270 261 268 257 252 244
121 76 203 184 166 181 146 139 128 183 239 249 220 230 191 216 213 107 124 130 344 340 354 30 62 84 75 74 77 81 95 80 83 185 206 221 237 248 261 267 276 274 270 265
161 175 159 175 124 181 181 168 153 216 209 258 121 218 294 254 241 258 304 312 326 307 293 116 110 94 75 70 69 72 79 74 70 81 85 100 159 248 261 287 292 303 292 288
174 211 196 183 206 181 192 187 216 234 216 318 158 239 253 288 312 277 277 288 289 270 222 183 133 117 97 69 59 71 72 68 54 58 65 61 51 49 41 9 336 316 315 320
179 235 209 183 159 172 179 212 100 95 126 268 214 238 280 274 275 260 281 301 260 242 202 192 176 133 103 78 54 51 67 63 49 43 44 44 36 30 16 4 352 345 333 331
186 164 338 151 188 221 197 157 183 220 226 238 226 249 237 176 156 95 69 14 271 251 201 199 196 160 115 92 79 69 67 71 58 54 47 47 41 29 19 16 10 352 339 334
153 217 90 164 212 191 169 185 210 227 221 271 307 240 212 253 263 113 35 4 308 230 204 201 194 180 159 117 111 111 98 86 74 61 51 45 38 29 24 20 8 356 342 346
173 163 170 189 49 284 216 217 205 208 186 238 275 251 171 190 159 302 271 229 314 251 211 200 193 203 199 193 171 102 84 81 63 57 58 49 39 30 26 14 2 355 353 349
166 196 162 180 171 159 217 214 220 228 16 224 222 242 54 239 287 310 311 305 293 260 222 208 206 212 207 204 193 185 160 109 85 74 62 50 38 30 24 4 354 356 355 352
175 168 218 224 182 167 204 210 215 213 224 243 235 261 241 259 277 282 310 297 290 237 219 217 215 209 207 208 204 196 171 128 108 95 75 51 33 21 16 357 356 354 349 350
183 210 218 231 186 184 216 219 216 215 230 234 251 257 263 267 268 285 272 270 275 259 240 226 219 213 210 205 199 189 179 157 137 118 102 62 36 21 18 0 348 354 350 349
178 195 187 252 236 230 235 229 231 224 239 249 255 265 267 271 283 269 263 262 261 257 247 237 225 216 213 203 196 192 187 173 172 144 101 54 25 7 359 343 340 344 347 347
179 174 172 246 236 235 227 233 237 237 237 235 246 250 270 272 259 253 263 256 249 246 240 231 225 219 209 198 187 191 180 160 171 140 98 57 23 0 343 329 329 333 332 328
174 203 189 232 134 232 240 251 225 229 238 237 250 265 263 264 272 274 249 243 246 243 239 237 231 221 201 184 176 159 161 165 170 146 132 75 13 332 323 317 323 323 321 316
197 176 212 225 213 255 277 235 212 228 248 249 246 251 259 266 270 270 236 239 247 252 250 244 242 215 177 172 164 160 162 164 162 156 148 109 327 302 311 318 322 322 312 311
202 241 227 187 233 231 244 251 188 137 249 247 232 239 251 263 263 268 265 238 239 249 264 226 160 155 165 162 159 160 162 166 168 160 150 164 313 306 308 316 314 314 293 297
189 202 216 223 234 252 249 216 141 202 244 254 243 241 250 255 250 267 285 235 310 256 203 149 159 164 153 151 156 159 158 161 139 134 117 5 331 310 305 316 312 315 314 307
181 179 204 218 227 226 234 120 203 227 237 249 252 238 242 250 265 271 269 259 199 185 157 156 141 131 128 140 150 146 138 113 95 72 78 13 321 322 334 330 328 333 318 310
205 208 199 201 213 227 194 229 228 267 282 282 276 258 246 261 263 269 251 223 201 193 161 150 138 127 110 94 128 132 107 94 86 69 33 1 337 350 348 342 342 328 328 324
231 195 235 168 237 243 241 256 256 199 236 252 252 274 261 266 270 232 189 196 160 167 163 143 136 127 110 93 90 105 107 88 89 45 24 8 357 360 360 341 336 335 333 334
215 161 223 260 260 292 280 240 260 260 255 269 270 259 257 244 249 206 189 187 140 149 148 140 129 119 114 106 83 61 58 52 71 68 42 18 13 6 334 330 359 344 331 322
180 218 215 240 255 236 261 258 333 264 260 274 270 270 245 233 252 169 164 145 132 143 139 130 125 120 118 104 85 64 36 34 39 68 41 27 359 345 340 359 350 341 322 325